Location: ?????????
(54.7630°N, 39.4991°E)
Time: 15:30:27
(UTC+00:00)

Cosmos 2218 Rocket - Pass Details

Date: 14 April 2026
Orbit: 956 x 1005 km, 82.9° (Epoch: 17 May)

Event Time Altitude Azimuth Distance (km) Brightness Sun altitude
Rises 17:54:36 0° 184° (S) 3,627 6.7 -12.4°
Reaches altitude 10° 17:57:05 10° 183° (S) 2,683 6.0 -12.7°
Maximum altitude 18:03:12 79° 98° (E) 981 3.9 -13.4°
Drops below altitude 10° 18:09:23 10° 13° (NNE) 2,705 6.7 -14.0°
Sets 18:11:53 0° 12° (NNE) 3,659 7.4 -14.3°
